User: anonymous   Login
Location: New Town
(33.2710°N, 90.7534°W)
Time: 20:37:01
(UTC+00:00)
Language:

N. Korean satellite - Orbit

View from above orbital plane
View from above orbital plane
View from above satellite
View from above satellite

Ground track
Ground track

The orbit data is extracted from the following two-line orbital elements,

1 39026U 12072A   21127.21970949  .00001644  00000-0  58049-4 0  9991
2 39026  97.2436 121.0972 0036113 168.4462 191.7616 15.30031620466783
Epoch (UTC): 07 May 2021 05:16:22
Eccentricity: 0.0036113
inclination: 97.2436°
perigee height: 451 km
apogee height: 500 km
right ascension of ascending node: 121.0972°
argument of perigee: 168.4462°
revolutions per day: 15.30031620
mean anomaly at epoch: 191.7616°
orbit number at epoch: 46678

The dashed part of the orbit path shows where the satellite is in the earth's shadow,  

DLR